OOEHY EKVG-BIHN

Flight info

Callsign OOEHY
Flight time N/A
Altitude 9000
Route MY DCT ELTEK DCT HN36F DCT HN
Aircraft C172/L-SFG/C

Departure

Time N/A
Airport Vágar Airport (EKVG)

Arrival

Time 2026-04-15 18:28
Airport Hornafjörður Airport (BIHN)
Time Latitude Longitude Altitude Speed Heading
2026-04-15 18:22 64.17204 -15.16391 1866 ft 94 kts 353°
2026-04-15 18:22 64.17822 -15.16687 1860 ft 89 kts 353°
2026-04-15 18:22 64.18417 -15.16975 1867 ft 85 kts 353°
2026-04-15 18:23 64.18997 -15.17261 1816 ft 89 kts 352°
2026-04-15 18:23 64.19621 -15.17569 1718 ft 94 kts 352°
2026-04-15 18:23 64.20275 -15.17897 1610 ft 97 kts 351°
2026-04-15 18:23 64.20940 -15.18237 1487 ft 100 kts 350°
2026-04-15 18:24 64.21621 -15.18589 1360 ft 102 kts 350°
2026-04-15 18:24 64.22318 -15.18951 1224 ft 103 kts 349°
2026-04-15 18:24 64.23020 -15.19316 1086 ft 103 kts 349°
2026-04-15 18:24 64.23674 -15.19656 955 ft 104 kts 348°
2026-04-15 18:25 64.24165 -15.19912 860 ft 104 kts 348°
2026-04-15 18:25 64.24825 -15.20255 723 ft 99 kts 349°
2026-04-15 18:25 64.25429 -15.20566 592 ft 81 kts 348°
2026-04-15 18:25 64.25839 -15.20780 524 ft 65 kts 348°
2026-04-15 18:26 64.26231 -15.20987 423 ft 54 kts 348°
2026-04-15 18:26 64.26620 -15.21220 410 ft 58 kts 341°
2026-04-15 18:26 64.27059 -15.21458 364 ft 70 kts 345°
2026-04-15 18:26 64.27545 -15.21685 336 ft 71 kts 349°
2026-04-15 18:27 64.28030 -15.21954 256 ft 72 kts 346°
2026-04-15 18:27 64.28522 -15.22175 179 ft 70 kts 345°
2026-04-15 18:27 64.28975 -15.22424 24 ft 60 kts 347°
2026-04-15 18:27 64.29376 -15.22636 30 ft 61 kts 345°
2026-04-15 18:28 64.29753 -15.22833 10 ft 48 kts 346°
2026-04-15 18:28 64.29953 -15.22934 14 ft 18 kts 344°
2026-04-15 18:28 64.30064 -15.22995 16 ft 17 kts 348°
2026-04-15 18:28 64.30174 -15.23048 18 ft 9 kts 348°
2026-04-15 18:29 64.30201 -15.22955 18 ft 8 kts 79°
2026-04-15 18:29 64.30218 -15.22789 19 ft 10 kts 76°
2026-04-15 18:29 64.30220 -15.22728 19 ft 1 kts 145°
2026-04-15 18:29 64.30209 -15.22722 19 ft 0 kts 166°